Location: Moscow
(38.8570°N, 84.2291°W)
Time: 20:57:50
(UTC+00:00)

MOZHAYETS 4 - Visible Passes

Search period start: 16 March 2026 00:00
Search period end: 26 March 2026 00:00
Orbit: 643 x 658 km, 98.3° (Epoch: 16 March)

Date Brightness Start Highest point End Pass type
(mag) Time Alt. Az. Time Alt. Az. Time Alt. Az.
16 Mar 7.9 10:29:52 10° SSE 10:34:22 74° ENE 10:38:54 10° N visible
17 Mar 10.8 09:22:33 10° E 09:24:53 14° ENE 09:27:12 10° NNE visible
17 Mar 7.7 10:56:37 10° S 11:01:04 56° W 11:05:31 10° NNW visible
18 Mar 10.3 00:26:46 10° NNW 00:30:21 24° WNW 00:33:54 10° WSW visible
18 Mar 10.0 09:47:36 10° ESE 09:51:18 25° ENE 09:54:59 10° NNE visible
19 Mar 10.9 00:54:42 10° NW 00:56:45 13° WNW 00:58:48 10° W visible
19 Mar 8.8 10:13:29 10° SE 10:17:49 47° ENE 10:22:10 10° N visible
20 Mar 7.6 10:39:54 10° SSE 10:44:25 88° WSW 10:48:58 10° NNW visible
21 Mar 9.6 00:09:46 10° N 00:13:51 35° WNW 00:17:54 10° SW visible
21 Mar 10.6 09:31:53 10° ESE 09:34:50 17° ENE 09:37:47 10° NNE visible
21 Mar 8.0 11:06:50 10° S 11:11:08 44° W 11:15:28 10° NNW visible
22 Mar 10.6 00:37:09 10° NNW 00:40:19 19° WNW 00:43:28 10° WSW visible
22 Mar 9.6 09:57:18 10° SE 10:01:17 31° ENE 10:05:16 10° N visible
23 Mar 11.3 01:05:58 10° NW 01:06:40 10° WNW 01:07:22 10° WNW visible
23 Mar 8.3 10:23:23 10° SSE 10:27:49 60° ENE 10:32:17 10° N visible
24 Mar 11.1 09:16:52 10° E 09:18:23 12° ENE 09:19:55 10° NE visible
24 Mar 7.6 10:49:58 10° S 10:54:28 69° WSW 10:58:58 10° NNW visible
25 Mar 10.1 00:20:00 10° N 00:23:48 28° WNW 00:27:36 10° SW visible
25 Mar 10.3 09:41:23 10° ESE 09:44:46 21° ENE 09:48:09 10° NNE visible
